"datetime","temp","dp","rain_mm","uv","solar","mb","wind_mph","gust_mph","windchill","rh"
"2020-10-02 00:00:00",10.2,9.6,0.0,0.0,0,989.1,3,5,"",96
"2020-10-02 00:01:00",10.2,9.6,0.0,0.0,0,989.1,1,2,"",96
"2020-10-02 00:02:00",10.2,9.6,0.0,0.0,0,989.1,1,2,"",96
"2020-10-02 00:03:00",10.3,9.7,0.0,0.0,0,989.0,1,2,"",96
"2020-10-02 00:04:00",10.3,9.7,0.0,0.0,0,989.0,2,4,"",96
"2020-10-02 00:05:00",10.3,9.7,0.0,0.0,0,988.9,1,3,"",96
"2020-10-02 00:06:00",10.3,9.7,0.0,0.0,0,988.9,2,3,"",96
"2020-10-02 00:07:00",10.3,9.7,0.0,0.0,0,988.9,1,4,"",96
"2020-10-02 00:08:00",10.2,9.6,0.0,0.0,0,988.9,2,4,"",96
"2020-10-02 00:09:00",10.3,9.7,0.0,0.0,0,988.9,2,3,"",96
"2020-10-02 00:10:00",10.3,9.7,0.0,0.0,0,988.8,2,4,"",96
"2020-10-02 00:11:00",10.3,9.7,0.2,0.0,0,988.8,1,3,"",96
"2020-10-02 00:12:00",10.2,9.6,0.2,0.0,0,988.8,2,3,"",96
"2020-10-02 00:13:00",10.3,9.7,0.2,0.0,0,988.7,2,5,"",96
"2020-10-02 00:14:00",10.3,9.7,0.2,0.0,0,988.7,2,3,"",96
"2020-10-02 00:15:00",10.3,9.7,0.2,0.0,0,988.7,3,5,"",96
"2020-10-02 00:16:00",10.3,9.7,0.2,0.0,0,988.6,1,2,"",96
"2020-10-02 00:17:00",10.3,9.7,0.2,0.0,0,988.5,2,4,"",96
"2020-10-02 00:18:00",10.2,9.6,0.2,0.0,0,988.5,2,3,"",96
"2020-10-02 00:19:00",10.3,9.7,0.2,0.0,0,988.5,1,2,"",96
"2020-10-02 00:20:00",10.3,9.7,0.2,0.0,0,988.5,2,3,"",96
"2020-10-02 00:21:00",10.3,9.7,0.2,0.0,0,988.5,1,2,"",96
"2020-10-02 00:22:00",10.2,9.6,0.2,0.0,0,988.5,1,2,"",96
"2020-10-02 00:23:00",10.2,9.6,0.2,0.0,0,988.5,1,2,"",96
"2020-10-02 00:24:00",10.2,9.6,0.2,0.0,0,988.4,1,3,"",96
"2020-10-02 00:25:00",10.2,9.6,0.2,0.0,0,988.4,3,4,"",96
"2020-10-02 00:26:00",10.2,9.6,0.2,0.0,0,988.5,3,4,"",96
"2020-10-02 00:27:00",10.2,9.6,0.2,0.0,0,988.4,2,3,"",96
"2020-10-02 00:28:00",10.2,9.6,0.2,0.0,0,988.3,2,3,"",96
"2020-10-02 00:29:00",10.2,9.6,0.2,0.0,0,988.4,1,3,"",96
"2020-10-02 00:30:00",10.3,9.7,0.2,0.0,0,988.2,0,1,"",96
"2020-10-02 00:31:00",10.3,9.7,0.2,0.0,0,988.3,1,2,"",96
"2020-10-02 00:32:00",10.3,9.7,0.2,0.0,0,988.2,2,3,"",96
"2020-10-02 00:33:00",10.2,9.6,0.2,0.0,0,988.2,2,3,"",96
"2020-10-02 00:34:00",10.2,9.6,0.2,0.0,0,988.2,2,4,"",96
"2020-10-02 00:35:00",10.2,9.6,0.2,0.0,0,988.2,3,5,"",96
"2020-10-02 00:36:00",10.2,9.6,0.2,0.0,0,988.2,2,4,"",96
"2020-10-02 00:37:00",10.2,9.6,0.2,0.0,0,988.1,2,3,"",96
"2020-10-02 00:38:00",10.2,9.6,0.2,0.0,0,988.1,1,3,"",96
"2020-10-02 00:39:00",10.2,9.6,0.2,0.0,0,988.1,2,3,"",96
"2020-10-02 00:40:00",10.2,9.6,0.2,0.0,0,988.1,2,3,"",96
"2020-10-02 00:41:00",10.2,9.6,0.2,0.0,0,988.1,2,4,"",96
"2020-10-02 00:42:00",10.2,9.6,0.2,0.0,0,988.0,2,3,"",96
"2020-10-02 00:43:00",10.2,9.6,0.2,0.0,0,988.0,2,3,"",96
"2020-10-02 00:44:00",10.2,9.6,0.2,0.0,0,988.0,1,2,"",96
"2020-10-02 00:45:00",10.2,9.6,0.2,0.0,0,988.0,0,2,"",96
"2020-10-02 00:46:00",10.2,9.6,0.2,0.0,0,988.0,1,3,"",96
"2020-10-02 00:47:00",10.2,9.6,0.2,0.0,0,988.0,2,3,"",96
"2020-10-02 00:48:00",10.2,9.6,0.2,0.0,0,988.0,1,3,"",96
"2020-10-02 00:49:00",10.3,9.7,0.2,0.0,0,987.9,2,3,"",96
"2020-10-02 00:50:00",10.2,9.6,0.2,0.0,0,987.9,2,3,"",96
"2020-10-02 00:51:00",10.2,9.6,0.2,0.0,0,988.0,1,4,"",96
"2020-10-02 00:52:00",10.2,9.6,0.2,0.0,0,987.9,2,4,"",96
"2020-10-02 00:53:00",10.2,9.6,0.2,0.0,0,988.0,1,3,"",96
"2020-10-02 00:54:00",10.2,9.6,0.2,0.0,0,987.9,1,2,"",96
"2020-10-02 00:55:00",10.2,9.6,0.2,0.0,0,987.9,1,2,"",96
"2020-10-02 00:56:00",10.2,9.6,0.2,0.0,0,987.9,1,2,"",96
"2020-10-02 00:57:00",10.2,9.6,0.2,0.0,0,987.8,1,3,"",96
"2020-10-02 00:58:00",10.2,9.6,0.2,0.0,0,987.9,1,3,"",96
"2020-10-02 00:59:00",10.2,9.6,0.2,0.0,0,987.8,1,2,"",96
"2020-10-02 01:00:00",10.2,9.6,0.2,0.0,0,987.8,1,2,"",96
"2020-10-02 01:01:00",10.2,9.6,0.2,0.0,0,987.8,2,5,"",96
"2020-10-02 01:02:00",10.2,9.6,0.2,0.0,0,987.7,1,2,"",96
"2020-10-02 01:03:00",10.2,9.6,0.2,0.0,0,987.8,1,2,"",96
"2020-10-02 01:04:00",10.2,9.6,0.2,0.0,0,987.7,2,5,"",96
"2020-10-02 01:05:00",10.2,9.6,0.2,0.0,0,987.7,2,4,"",96
"2020-10-02 01:06:00",10.2,9.6,0.2,0.0,0,987.6,2,3,"",96
"2020-10-02 01:07:00",10.2,9.6,0.2,0.0,0,987.6,1,3,"",96
"2020-10-02 01:08:00",10.3,9.7,0.2,0.0,0,987.6,2,3,"",96
"2020-10-02 01:09:00",10.3,9.7,0.2,0.0,0,987.5,1,2,"",96
"2020-10-02 01:10:00",10.3,9.7,0.2,0.0,0,987.5,2,2,"",96
"2020-10-02 01:11:00",10.2,9.6,0.2,0.0,0,987.5,2,3,"",96
"2020-10-02 01:12:00",10.3,9.7,0.2,0.0,0,987.4,1,2,"",96
"2020-10-02 01:13:00",10.3,9.7,0.2,0.0,0,987.4,1,2,"",96
"2020-10-02 01:14:00",10.2,9.6,0.2,0.0,0,987.4,1,3,"",96
"2020-10-02 01:15:00",10.2,9.6,0.2,0.0,0,987.4,1,2,"",96
"2020-10-02 01:16:00",10.2,9.6,0.2,0.0,0,987.4,1,3,"",96
"2020-10-02 01:17:00",10.2,9.6,0.2,0.0,0,987.4,2,3,"",96
"2020-10-02 01:18:00",10.2,9.6,0.2,0.0,0,987.4,1,2,"",96
"2020-10-02 01:19:00",10.2,9.6,0.2,0.0,0,987.4,1,2,"",96
"2020-10-02 01:20:00",10.2,9.6,0.2,0.0,0,987.4,1,2,"",96
"2020-10-02 01:21:00",10.2,9.6,0.2,0.0,0,987.3,1,2,"",96
"2020-10-02 01:22:00",10.2,9.6,0.2,0.0,0,987.3,1,3,"",96
"2020-10-02 01:23:00",10.2,9.6,0.2,0.0,0,987.3,2,3,"",96
"2020-10-02 01:24:00",10.3,9.7,0.2,0.0,0,987.3,1,2,"",96
"2020-10-02 01:25:00",10.3,9.7,0.4,0.0,0,987.3,1,2,"",96
"2020-10-02 01:26:00",10.3,9.7,0.4,0.0,0,987.3,2,4,"",96
"2020-10-02 01:27:00",10.3,9.7,0.4,0.0,0,987.2,1,1,"",96
"2020-10-02 01:28:00",10.3,9.7,0.4,0.0,0,987.2,1,3,"",96
"2020-10-02 01:29:00",10.3,9.7,0.4,0.0,0,987.2,1,2,"",96
"2020-10-02 01:30:00",10.3,9.7,0.4,0.0,0,987.1,2,2,"",96
"2020-10-02 01:31:00",10.3,9.7,0.4,0.0,0,987.2,2,2,"",96
"2020-10-02 01:32:00",10.3,9.7,0.4,0.0,0,987.1,1,2,"",96
"2020-10-02 01:33:00",10.3,9.7,0.4,0.0,0,987.1,1,2,"",96
"2020-10-02 01:34:00",10.3,9.7,0.4,0.0,0,987.0,1,2,"",96
"2020-10-02 01:35:00",10.3,9.7,0.4,0.0,0,987.1,0,1,"",96
"2020-10-02 01:36:00",10.3,9.7,0.4,0.0,0,987.0,1,2,"",96
"2020-10-02 01:37:00",10.3,9.7,0.4,0.0,0,987.0,1,3,"",96
"2020-10-02 01:38:00",10.3,9.7,0.4,0.0,0,987.0,1,2,"",96
"2020-10-02 01:39:00",10.4,9.8,0.4,0.0,0,987.0,1,2,"",96
"2020-10-02 01:40:00",10.4,9.8,0.4,0.0,0,987.0,1,2,"",96
"2020-10-02 01:41:00",10.4,9.8,0.4,0.0,0,987.0,1,1,"",96
"2020-10-02 01:42:00",10.4,9.8,0.4,0.0,0,986.9,1,2,"",96
"2020-10-02 01:43:00",10.4,9.8,0.4,0.0,0,986.9,0,1,"",96
"2020-10-02 01:44:00",10.4,9.8,0.4,0.0,0,986.9,1,2,"",96
"2020-10-02 01:45:00",10.4,9.8,0.4,0.0,0,986.9,1,2,"",96
"2020-10-02 01:46:00",10.4,9.8,0.4,0.0,0,986.9,1,2,"",96
"2020-10-02 01:47:00",10.4,9.8,0.4,0.0,0,986.8,2,3,"",96
"2020-10-02 01:48:00",10.4,9.8,0.4,0.0,0,986.8,2,3,"",96
"2020-10-02 01:49:00",10.4,9.8,0.4,0.0,0,986.8,2,4,"",96
"2020-10-02 01:50:00",10.4,9.8,0.4,0.0,0,986.8,1,2,"",96
"2020-10-02 01:51:00",10.4,9.8,0.4,0.0,0,986.7,0,2,"",96
"2020-10-02 01:52:00",10.4,9.8,0.4,0.0,0,986.7,1,3,"",96
"2020-10-02 01:53:00",10.4,9.8,0.4,0.0,0,986.7,1,2,"",96
"2020-10-02 01:54:00",10.4,9.8,0.4,0.0,0,986.6,1,2,"",96
"2020-10-02 01:55:00",10.4,9.8,0.4,0.0,0,986.6,2,4,"",96
"2020-10-02 01:56:00",10.4,9.8,0.4,0.0,0,986.6,3,5,"",96
"2020-10-02 01:57:00",10.4,9.8,0.4,0.0,0,986.6,1,2,"",96
"2020-10-02 01:58:00",10.4,9.8,0.4,0.0,0,986.6,2,5,"",96
"2020-10-02 01:59:00",10.5,9.9,0.4,0.0,0,986.6,1,3,"",96
"2020-10-02 02:00:00",10.4,9.8,0.4,0.0,0,986.6,2,5,"",96
"2020-10-02 02:01:00",10.5,9.9,0.4,0.0,0,986.6,1,2,"",96
"2020-10-02 02:02:00",10.5,9.9,0.4,0.0,0,986.6,2,4,"",96
"2020-10-02 02:03:00",10.5,9.9,0.4,0.0,0,986.6,1,3,"",96
"2020-10-02 02:04:00",10.5,9.9,0.4,0.0,0,986.6,2,5,"",96
"2020-10-02 02:05:00",10.6,10.0,0.4,0.0,0,986.6,2,5,"",96
"2020-10-02 02:06:00",10.6,10.0,0.4,0.0,0,986.6,1,3,"",96
"2020-10-02 02:07:00",10.6,10.0,0.4,0.0,0,986.5,1,3,"",96
"2020-10-02 02:08:00",10.6,10.0,0.4,0.0,0,986.5,2,4,"",96
"2020-10-02 02:09:00",10.6,10.0,0.4,0.0,0,986.5,1,2,"",96
"2020-10-02 02:10:00",10.6,10.0,0.4,0.0,0,986.5,1,2,"",96
"2020-10-02 02:11:00",10.6,10.0,0.4,0.0,0,986.5,1,2,"",96
"2020-10-02 02:12:00",10.6,10.0,0.4,0.0,0,986.4,3,5,"",96
"2020-10-02 02:13:00",10.6,10.0,0.6,0.0,0,986.4,1,3,"",96
"2020-10-02 02:14:00",10.6,10.0,0.6,0.0,0,986.4,2,3,"",96
"2020-10-02 02:15:00",10.6,10.0,0.6,0.0,0,986.3,1,3,"",96
"2020-10-02 02:16:00",10.6,10.0,0.6,0.0,0,986.3,1,2,"",96
"2020-10-02 02:17:00",10.6,10.0,0.6,0.0,0,986.4,1,3,"",96
"2020-10-02 02:18:00",10.6,10.0,0.6,0.0,0,986.4,2,4,"",96
"2020-10-02 02:19:00",10.6,10.0,0.6,0.0,0,986.4,1,2,"",96
"2020-10-02 02:20:00",10.6,10.0,0.6,0.0,0,986.3,3,6,"",96
"2020-10-02 02:21:00",10.6,10.0,0.6,0.0,0,986.3,1,2,"",96
"2020-10-02 02:22:00",10.6,10.0,0.6,0.0,0,986.3,1,3,"",96
"2020-10-02 02:23:00",10.6,10.0,0.6,0.0,0,986.3,1,3,"",96
"2020-10-02 02:24:00",10.6,10.0,0.6,0.0,0,986.3,1,2,"",96
"2020-10-02 02:25:00",10.6,10.0,0.6,0.0,0,986.3,1,2,"",96
"2020-10-02 02:26:00",10.6,10.0,0.6,0.0,0,986.2,1,2,"",96
"2020-10-02 02:27:00",10.6,10.0,0.6,0.0,0,986.2,1,2,"",96
"2020-10-02 02:28:00",10.6,10.0,0.6,0.0,0,986.1,1,2,"",96
"2020-10-02 02:29:00",10.6,10.0,0.6,0.0,0,986.1,1,3,"",96
"2020-10-02 02:30:00",10.6,10.0,0.6,0.0,0,986.0,2,4,"",96
"2020-10-02 02:31:00",10.6,10.0,0.6,0.0,0,986.0,1,3,"",96
"2020-10-02 02:32:00",10.6,10.0,0.6,0.0,0,986.0,2,5,"",96
"2020-10-02 02:33:00",10.6,10.0,0.6,0.0,0,986.0,2,4,"",96
"2020-10-02 02:34:00",10.6,10.0,0.6,0.0,0,986.0,2,5,"",96
"2020-10-02 02:35:00",10.6,10.0,0.6,0.0,0,985.9,2,4,"",96
"2020-10-02 02:36:00",10.6,10.0,0.6,0.0,0,985.9,2,5,"",96
"2020-10-02 02:37:00",10.6,10.0,0.6,0.0,0,985.8,2,4,"",96
"2020-10-02 02:38:00",10.6,10.0,0.6,0.0,0,985.9,1,2,"",96
"2020-10-02 02:39:00",10.6,10.0,0.6,0.0,0,985.9,1,2,"",96
"2020-10-02 02:40:00",10.6,10.0,0.6,0.0,0,985.8,1,2,"",96
"2020-10-02 02:41:00",10.6,10.0,0.6,0.0,0,985.8,1,2,"",96
"2020-10-02 02:42:00",10.6,10.0,0.6,0.0,0,985.8,1,2,"",96
"2020-10-02 02:43:00",10.6,10.0,0.6,0.0,0,985.8,1,2,"",96
"2020-10-02 02:44:00",10.6,10.0,0.6,0.0,0,985.8,2,3,"",96
"2020-10-02 02:45:00",10.6,10.0,0.6,0.0,0,985.8,1,2,"",96
"2020-10-02 02:46:00",10.6,10.0,0.6,0.0,0,985.8,2,3,"",96
"2020-10-02 02:47:00",10.6,10.0,0.6,0.0,0,985.8,1,2,"",96
"2020-10-02 02:48:00",10.6,10.0,0.6,0.0,0,985.7,1,2,"",96
"2020-10-02 02:49:00",10.6,10.0,0.6,0.0,0,985.7,2,4,"",96
"2020-10-02 02:50:00",10.6,10.0,0.6,0.0,0,985.7,1,2,"",96
"2020-10-02 02:51:00",10.6,10.0,0.6,0.0,0,985.7,1,2,"",96
"2020-10-02 02:52:00",10.6,10.0,0.6,0.0,0,985.6,2,5,"",96
"2020-10-02 02:53:00",10.6,10.0,0.6,0.0,0,985.6,2,2,"",96
"2020-10-02 02:54:00",10.6,10.0,0.6,0.0,0,985.6,2,3,"",96
"2020-10-02 02:55:00",10.6,10.0,0.6,0.0,0,985.6,1,2,"",96
"2020-10-02 02:56:00",10.6,10.0,0.6,0.0,0,985.5,1,3,"",96
"2020-10-02 02:57:00",10.6,10.0,0.6,0.0,0,985.5,1,2,"",96
"2020-10-02 02:58:00",10.6,10.0,0.6,0.0,0,985.5,2,4,"",96
"2020-10-02 02:59:00",10.6,10.0,0.6,0.0,0,985.5,1,2,"",96
"2020-10-02 03:00:00",10.6,10.0,0.6,0.0,0,985.4,2,2,"",96
"2020-10-02 03:01:00",10.6,10.0,0.6,0.0,0,985.4,2,3,"",96
"2020-10-02 03:02:00",10.6,10.0,0.6,0.0,0,985.4,1,2,"",96
"2020-10-02 03:03:00",10.6,10.0,0.6,0.0,0,985.4,1,2,"",96
"2020-10-02 03:04:00",10.6,10.0,0.6,0.0,0,985.4,2,3,"",96
"2020-10-02 03:05:00",10.6,10.0,0.6,0.0,0,985.3,2,3,"",96
"2020-10-02 03:06:00",10.6,10.0,0.6,0.0,0,985.3,2,3,"",96
"2020-10-02 03:07:00",10.6,10.0,0.6,0.0,0,985.3,3,4,"",96
"2020-10-02 03:08:00",10.6,10.0,0.6,0.0,0,985.3,2,4,"",96
"2020-10-02 03:09:00",10.6,10.0,0.6,0.0,0,985.3,2,5,"",96
"2020-10-02 03:10:00",10.6,10.0,0.6,0.0,0,985.2,1,5,"",96
"2020-10-02 03:11:00",10.6,10.0,0.6,0.0,0,985.3,2,4,"",96
"2020-10-02 03:12:00",10.6,10.0,0.6,0.0,0,985.2,2,5,"",96
"2020-10-02 03:13:00",10.6,10.0,0.6,0.0,0,985.2,2,5,"",96
"2020-10-02 03:14:00",10.6,10.0,0.6,0.0,0,985.2,1,2,"",96
"2020-10-02 03:15:00",10.7,10.1,0.6,0.0,0,985.2,1,3,"",96
"2020-10-02 03:16:00",10.7,10.1,0.6,0.0,0,985.2,1,3,"",96
"2020-10-02 03:17:00",10.7,10.1,0.6,0.0,0,985.2,3,6,"",96
"2020-10-02 03:18:00",10.7,10.1,0.6,0.0,0,985.2,2,6,"",96
"2020-10-02 03:19:00",10.7,10.1,0.6,0.0,0,985.1,2,3,"",96
"2020-10-02 03:20:00",10.7,10.1,0.6,0.0,0,985.1,2,4,"",96
"2020-10-02 03:21:00",10.7,10.1,0.6,0.0,0,985.0,1,2,"",96
"2020-10-02 03:22:00",10.7,10.1,0.6,0.0,0,985.1,2,5,"",96
"2020-10-02 03:23:00",10.7,10.1,0.6,0.0,0,985.0,2,3,"",96
"2020-10-02 03:24:00",10.7,10.1,0.6,0.0,0,985.0,2,5,"",96
"2020-10-02 03:25:00",10.8,10.2,0.6,0.0,0,985.0,1,3,"",96
"2020-10-02 03:26:00",10.7,10.1,0.6,0.0,0,984.9,2,4,"",96
"2020-10-02 03:27:00",10.8,10.2,0.6,0.0,0,984.9,2,4,"",96
"2020-10-02 03:28:00",10.7,10.1,0.6,0.0,0,984.9,2,4,"",96
"2020-10-02 03:29:00",10.8,10.2,0.8,0.0,0,984.9,2,7,"",96
"2020-10-02 03:30:00",10.8,10.2,0.8,0.0,0,984.9,2,4,"",96
"2020-10-02 03:31:00",10.8,10.2,0.8,0.0,0,984.9,1,2,"",96
"2020-10-02 03:32:00",10.8,10.2,0.8,0.0,0,984.8,1,2,"",96
"2020-10-02 03:33:00",10.8,10.2,0.8,0.0,0,984.8,2,4,"",96
"2020-10-02 03:34:00",10.8,10.2,0.8,0.0,0,984.8,2,6,"",96
"2020-10-02 03:35:00",10.8,10.2,0.8,0.0,0,984.7,2,5,"",96
"2020-10-02 03:36:00",10.8,10.2,0.8,0.0,0,984.8,1,4,"",96
"2020-10-02 03:37:00",10.8,10.2,0.8,0.0,0,984.7,2,5,"",96
"2020-10-02 03:38:00",10.8,10.2,0.8,0.0,0,984.7,3,5,"",96
"2020-10-02 03:39:00",10.8,10.2,0.8,0.0,0,984.7,2,3,"",96
"2020-10-02 03:40:00",10.8,10.2,0.8,0.0,0,984.7,2,3,"",96
"2020-10-02 03:41:00",10.8,10.2,0.8,0.0,0,984.7,1,3,"",96
"2020-10-02 03:42:00",10.8,10.2,0.8,0.0,0,984.7,1,2,"",96
"2020-10-02 03:43:00",10.8,10.2,0.8,0.0,0,984.6,1,2,"",96
"2020-10-02 03:44:00",10.8,10.2,0.8,0.0,0,984.6,2,4,"",96
"2020-10-02 03:45:00",10.8,10.2,0.8,0.0,0,984.6,2,3,"",96
"2020-10-02 03:46:00",10.8,10.2,0.8,0.0,0,984.6,2,4,"",96
"2020-10-02 03:47:00",10.8,10.2,0.8,0.0,0,984.6,1,3,"",96
"2020-10-02 03:48:00",10.8,10.2,0.8,0.0,0,984.5,1,2,"",96
"2020-10-02 03:49:00",10.8,10.2,0.8,0.0,0,984.5,2,6,"",96
"2020-10-02 03:50:00",10.8,10.2,0.8,0.0,0,984.4,3,4,"",96
"2020-10-02 03:51:00",10.8,10.2,1.0,0.0,0,984.4,2,3,"",96
"2020-10-02 03:52:00",10.8,10.2,1.0,0.0,0,984.4,2,4,"",96
"2020-10-02 03:53:00",10.8,10.2,1.0,0.0,0,984.4,3,11,"",96
"2020-10-02 03:54:00",10.8,10.2,1.0,0.0,0,984.3,3,8,"",96
"2020-10-02 03:55:00",10.9,10.3,1.0,0.0,0,984.2,1,4,"",96
"2020-10-02 03:56:00",10.8,10.2,1.0,0.0,0,984.3,2,11,"",96
"2020-10-02 03:57:00",10.8,10.2,1.0,0.0,0,984.3,1,3,"",96
"2020-10-02 03:59:00",10.9,10.3,1.0,0.0,0,984.2,3,5,"",96
"2020-10-02 04:00:00",10.9,10.3,1.0,0.0,0,984.2,3,8,"",96
"2020-10-02 04:01:00",10.9,10.3,1.0,0.0,0,984.2,4,8,"",96
"2020-10-02 04:02:00",10.9,10.3,1.0,0.0,0,984.1,3,9,"",96
"2020-10-02 04:03:00",10.9,10.3,1.0,0.0,0,984.1,1,2,"",96
"2020-10-02 04:04:00",10.9,10.3,1.0,0.0,0,984.0,2,4,"",96
"2020-10-02 04:05:00",10.9,10.3,1.0,0.0,0,984.0,2,4,"",96
"2020-10-02 04:06:00",10.9,10.3,1.0,0.0,0,984.0,2,3,"",96
"2020-10-02 04:07:00",10.9,10.3,1.0,0.0,0,983.9,3,4,"",96
"2020-10-02 04:08:00",10.9,10.3,1.0,0.0,0,983.9,2,2,"",96
"2020-10-02 04:09:00",10.9,10.3,1.0,0.0,0,983.9,1,3,"",96
"2020-10-02 04:10:00",10.9,10.3,1.0,0.0,0,983.8,2,5,"",96
"2020-10-02 04:11:00",10.9,10.3,1.0,0.0,0,983.9,2,4,"",96
"2020-10-02 04:12:00",10.9,10.3,1.0,0.0,0,983.9,2,5,"",96
"2020-10-02 04:13:00",10.9,10.3,1.0,0.0,0,983.9,3,7,"",96
"2020-10-02 04:14:00",11.0,10.4,1.0,0.0,0,983.8,2,6,"",96
"2020-10-02 04:15:00",10.9,10.3,1.0,0.0,0,983.9,2,5,"",96
"2020-10-02 04:16:00",10.9,10.3,1.0,0.0,0,983.9,2,4,"",96
"2020-10-02 04:17:00",10.9,10.3,1.0,0.0,0,983.9,3,6,"",96
"2020-10-02 04:18:00",10.9,10.3,1.0,0.0,0,983.9,5,9,"",96
"2020-10-02 04:19:00",11.0,10.4,1.0,0.0,0,983.8,4,10,"",96
"2020-10-02 04:20:00",11.0,10.4,1.2,0.0,0,983.8,3,7,"",96
"2020-10-02 04:21:00",11.0,10.4,1.2,0.0,0,983.8,3,5,"",96
"2020-10-02 04:22:00",11.0,10.4,1.2,0.0,0,983.7,2,3,"",96
"2020-10-02 04:23:00",11.0,10.4,1.2,0.0,0,983.8,3,6,"",96
"2020-10-02 04:24:00",11.0,10.4,1.2,0.0,0,983.7,2,4,"",96
"2020-10-02 04:25:00",11.0,10.4,1.2,0.0,0,983.7,2,4,"",96
"2020-10-02 04:26:00",11.1,10.5,1.2,0.0,0,983.7,2,5,"",96
"2020-10-02 04:27:00",11.1,10.5,1.2,0.0,0,983.7,2,4,"",96
"2020-10-02 04:28:00",11.1,10.5,1.2,0.0,0,983.6,3,6,"",96
"2020-10-02 04:29:00",11.1,10.5,1.2,0.0,0,983.7,3,5,"",96
"2020-10-02 04:30:00",11.1,10.5,1.2,0.0,0,983.7,3,4,"",96
"2020-10-02 04:31:00",11.1,10.5,1.2,0.0,0,983.7,3,5,"",96
"2020-10-02 04:32:00",11.1,10.5,1.2,0.0,0,983.7,2,5,"",96
"2020-10-02 04:33:00",11.1,10.5,1.2,0.0,0,983.7,2,4,"",96
"2020-10-02 04:34:00",11.1,10.5,1.2,0.0,0,983.7,2,5,"",96
"2020-10-02 04:35:00",11.1,10.5,1.2,0.0,0,983.6,4,12,"",96
"2020-10-02 04:36:00",11.1,10.5,1.2,0.0,0,983.6,2,4,"",96
"2020-10-02 04:37:00",11.2,10.6,1.2,0.0,0,983.6,3,8,"",96
"2020-10-02 04:38:00",11.2,10.6,1.2,0.0,0,983.6,3,6,"",96
"2020-10-02 04:39:00",11.1,10.5,1.4,0.0,0,983.6,3,6,"",96
"2020-10-02 04:40:00",11.2,10.6,1.4,0.0,0,983.6,3,7,"",96
"2020-10-02 04:41:00",11.2,10.6,1.4,0.0,0,983.7,2,6,"",96
"2020-10-02 04:42:00",11.2,10.6,1.4,0.0,0,983.7,3,7,"",96
"2020-10-02 04:43:00",11.2,10.6,1.6,0.0,0,983.7,4,9,"",96
"2020-10-02 04:44:00",11.2,10.6,1.6,0.0,0,983.7,3,8,"",96
"2020-10-02 04:45:00",11.2,10.6,1.6,0.0,0,983.6,3,9,"",96
"2020-10-02 04:46:00",11.2,10.6,1.8,0.0,0,983.6,3,6,"",96
"2020-10-02 04:47:00",11.2,10.6,2.0,0.0,0,983.5,5,11,"",96
"2020-10-02 04:48:00",11.2,10.6,2.0,0.0,0,983.5,3,7,"",96
"2020-10-02 04:49:00",11.2,10.6,2.0,0.0,0,983.6,4,7,"",96
"2020-10-02 04:50:00",11.2,10.6,2.2,0.0,0,983.6,3,7,"",96
"2020-10-02 04:51:00",11.2,10.6,2.2,0.0,0,983.6,2,3,"",96
"2020-10-02 04:52:00",11.2,10.6,2.2,0.0,0,983.7,1,3,"",96
"2020-10-02 04:53:00",11.2,10.6,2.2,0.0,0,983.6,4,6,"",96
"2020-10-02 04:54:00",11.2,10.6,2.2,0.0,0,983.6,3,5,"",96
"2020-10-02 04:55:00",11.2,10.6,2.4,0.0,0,983.6,3,5,"",96
"2020-10-02 04:56:00",11.2,10.6,2.4,0.0,0,983.5,3,5,"",96
"2020-10-02 04:57:00",11.2,10.6,2.4,0.0,0,983.6,2,5,"",96
"2020-10-02 04:58:00",11.2,10.6,2.4,0.0,0,983.6,3,6,"",96
"2020-10-02 04:59:00",11.2,10.6,2.4,0.0,0,983.6,3,6,"",96
"2020-10-02 05:00:00",11.2,10.6,2.6,0.0,0,983.7,4,7,"",96
"2020-10-02 05:01:00",11.2,10.6,2.6,0.0,0,983.6,3,7,"",96
"2020-10-02 05:02:00",11.2,10.6,2.6,0.0,0,983.4,3,5,"",96
"2020-10-02 05:03:00",11.2,10.6,2.6,0.0,0,983.5,2,3,"",96
"2020-10-02 05:04:00",11.2,10.6,2.6,0.0,0,983.5,8,14,"",96
"2020-10-02 05:05:00",11.2,10.6,2.6,0.0,0,983.5,2,6,"",96
"2020-10-02 05:06:00",11.1,10.5,2.8,0.0,0,983.4,4,5,"",96
"2020-10-02 05:07:00",11.1,10.5,2.8,0.0,0,983.4,2,4,"",96
"2020-10-02 05:08:00",11.1,10.5,2.8,0.0,0,983.4,4,5,"",96
"2020-10-02 05:09:00",11.1,10.5,2.8,0.0,0,983.3,4,7,"",96
"2020-10-02 05:10:00",11.1,10.5,2.8,0.0,0,983.3,3,8,"",96
"2020-10-02 05:11:00",11.0,10.4,2.8,0.0,0,983.3,3,4,"",96
"2020-10-02 05:12:00",11.0,10.4,3.0,0.0,0,983.3,3,5,"",96
"2020-10-02 05:13:00",11.0,10.4,3.0,0.0,0,983.2,2,4,"",96
"2020-10-02 05:14:00",11.0,10.4,3.0,0.0,0,983.2,3,3,"",96
"2020-10-02 05:15:00",11.0,10.4,3.0,0.0,0,983.2,3,6,"",96
"2020-10-02 05:16:00",11.0,10.4,3.0,0.0,0,983.2,2,3,"",96
"2020-10-02 05:17:00",10.9,10.3,3.0,0.0,0,983.2,2,5,"",96
"2020-10-02 05:18:00",10.9,10.3,3.0,0.0,0,983.2,4,9,"",96
"2020-10-02 05:19:00",10.9,10.3,3.0,0.0,0,983.1,2,4,"",96
"2020-10-02 05:20:00",10.9,10.3,3.2,0.0,0,983.1,3,5,"",96
"2020-10-02 05:21:00",10.9,10.3,3.2,0.0,0,983.1,3,7,"",96
"2020-10-02 05:22:00",10.9,10.3,3.2,0.0,0,983.1,3,5,"",96
"2020-10-02 05:23:00",10.9,10.3,3.2,0.0,0,983.0,4,6,"",96
"2020-10-02 05:24:00",10.9,10.3,3.2,0.0,0,983.0,3,6,"",96
"2020-10-02 05:25:00",10.9,10.3,3.2,0.0,0,983.0,3,10,"",96
"2020-10-02 05:26:00",10.9,10.3,3.2,0.0,0,983.0,2,5,"",96
"2020-10-02 05:27:00",10.9,10.3,3.2,0.0,0,983.0,4,6,"",96
"2020-10-02 05:28:00",10.9,10.3,3.2,0.0,0,983.0,2,5,"",96
"2020-10-02 05:29:00",10.9,10.3,3.2,0.0,0,983.0,2,4,"",96
"2020-10-02 05:30:00",10.9,10.3,3.2,0.0,0,983.0,2,4,"",96
"2020-10-02 05:31:00",10.9,10.3,3.2,0.0,0,982.9,3,4,"",96
"2020-10-02 05:32:00",10.9,10.3,3.2,0.0,0,982.9,3,5,"",96
"2020-10-02 05:33:00",10.9,10.3,3.2,0.0,0,983.0,2,4,"",96
"2020-10-02 05:34:00",10.9,10.3,3.2,0.0,0,982.9,3,5,"",96
"2020-10-02 05:35:00",11.0,10.4,3.2,0.0,0,982.9,4,10,"",96
"2020-10-02 05:36:00",11.0,10.4,3.2,0.0,0,982.9,3,9,"",96
"2020-10-02 05:37:00",11.0,10.4,3.2,0.0,0,982.9,3,5,"",96
"2020-10-02 05:38:00",11.0,10.4,3.2,0.0,0,983.0,4,9,"",96
"2020-10-02 05:39:00",11.0,10.4,3.2,0.0,0,982.9,3,5,"",96
"2020-10-02 05:40:00",11.0,10.4,3.2,0.0,0,982.9,3,5,"",96
"2020-10-02 05:41:00",10.9,10.3,3.2,0.0,0,982.9,3,5,"",96
"2020-10-02 05:42:00",10.9,10.3,3.4,0.0,0,983.0,3,9,"",96
"2020-10-02 05:43:00",11.0,10.4,3.4,0.0,0,982.9,3,5,"",96
"2020-10-02 05:44:00",11.0,10.4,3.4,0.0,0,982.9,4,7,"",96
"2020-10-02 05:45:00",11.0,10.4,3.4,0.0,0,982.9,4,11,"",96
"2020-10-02 05:46:00",11.0,10.4,3.4,0.0,0,982.8,3,5,"",96
"2020-10-02 05:47:00",11.0,10.4,3.4,0.0,0,982.8,3,6,"",96
"2020-10-02 05:48:00",11.0,10.4,3.6,0.0,0,982.8,2,4,"",96
"2020-10-02 05:49:00",10.9,10.3,3.6,0.0,0,982.8,2,4,"",96
"2020-10-02 05:50:00",10.9,10.3,3.6,0.0,0,982.9,4,9,"",96
"2020-10-02 05:51:00",11.0,10.4,3.6,0.0,0,982.9,2,5,"",96
"2020-10-02 05:52:00",11.0,10.4,3.6,0.0,0,983.0,3,5,"",96
"2020-10-02 05:53:00",11.0,10.4,3.6,0.0,0,983.0,3,5,"",96
"2020-10-02 05:54:00",11.0,10.4,3.6,0.0,0,983.0,3,5,"",96
"2020-10-02 05:55:00",11.0,10.4,3.6,0.0,0,983.0,3,6,"",96
"2020-10-02 05:56:00",11.0,10.4,3.6,0.0,0,982.9,3,5,"",96
"2020-10-02 05:57:00",11.0,10.4,3.6,0.0,0,982.8,3,5,"",96
"2020-10-02 05:58:00",11.0,10.4,3.6,0.0,0,982.8,4,7,"",96
"2020-10-02 05:59:00",11.0,10.4,3.8,0.0,0,982.7,3,10,"",96
"2020-10-02 06:00:00",11.0,10.4,3.8,0.0,0,982.7,3,7,"",96
"2020-10-02 06:01:00",11.0,10.4,3.8,0.0,0,982.7,4,11,"",96
"2020-10-02 06:02:00",11.0,10.4,3.8,0.0,0,982.8,3,9,"",96
"2020-10-02 06:03:00",10.9,10.3,3.8,0.0,0,982.7,2,4,"",96
"2020-10-02 06:04:00",11.0,10.4,3.8,0.0,0,982.6,2,3,"",96
"2020-10-02 06:05:00",11.0,10.4,3.8,0.0,0,982.7,3,5,"",96
"2020-10-02 06:06:00",11.0,10.4,3.8,0.0,0,982.6,2,5,"",96
"2020-10-02 06:07:00",11.0,10.4,3.8,0.0,0,982.6,3,5,"",96
"2020-10-02 06:08:00",11.0,10.4,3.8,0.0,0,982.5,4,8,"",96
"2020-10-02 06:09:00",10.9,10.3,3.8,0.0,0,982.5,3,5,"",96
"2020-10-02 06:10:00",10.9,10.3,3.8,0.0,0,982.5,4,13,"",96
"2020-10-02 06:11:00",10.9,10.3,3.8,0.0,0,982.5,3,6,"",96
"2020-10-02 06:12:00",10.9,10.3,3.8,0.0,0,982.4,3,7,"",96
"2020-10-02 06:13:00",10.9,10.3,3.8,0.0,0,982.4,6,12,"",96
"2020-10-02 06:14:00",10.9,10.3,3.8,0.0,0,982.4,3,5,"",96
"2020-10-02 06:15:00",10.9,10.3,3.8,0.0,0,982.3,2,4,"",96
"2020-10-02 06:16:00",11.0,10.4,3.8,0.0,0,982.3,2,3,"",96
"2020-10-02 06:17:00",10.9,10.3,3.8,0.0,0,982.3,2,5,"",96
"2020-10-02 06:18:00",11.0,10.4,4.0,0.0,0,982.3,3,7,"",96
"2020-10-02 06:19:00",11.0,10.4,4.0,0.0,0,982.1,4,6,"",96
"2020-10-02 06:20:00",11.0,10.4,4.0,0.0,0,982.2,3,8,"",96
"2020-10-02 06:21:00",11.0,10.4,4.0,0.0,0,982.2,3,5,"",96
"2020-10-02 06:22:00",11.0,10.4,4.0,0.0,0,982.2,5,10,"",96
"2020-10-02 06:23:00",11.0,10.4,4.0,0.0,0,982.1,2,5,"",96
"2020-10-02 06:24:00",11.1,10.5,4.0,0.0,0,982.1,4,6,"",96
"2020-10-02 06:25:00",11.1,10.5,4.0,0.0,0,982.1,5,12,"",96
"2020-10-02 06:26:00",11.0,10.4,4.0,0.0,0,982.1,2,4,"",96
"2020-10-02 06:27:00",11.0,10.4,4.0,0.0,0,982.1,3,6,"",96
"2020-10-02 06:28:00",11.1,10.5,4.0,0.0,0,982.1,4,10,"",96
"2020-10-02 06:29:00",11.0,10.4,4.0,0.0,0,982.2,4,9,"",96
"2020-10-02 06:30:00",11.1,10.5,4.0,0.0,0,982.1,2,4,"",96
"2020-10-02 06:31:00",11.1,10.5,4.0,0.0,0,982.0,4,10,"",96
"2020-10-02 06:32:00",11.0,10.4,4.0,0.0,0,982.0,3,5,"",96
"2020-10-02 06:33:00",11.0,10.4,4.0,0.0,0,982.1,3,7,"",96
"2020-10-02 06:34:00",11.1,10.5,4.0,0.0,0,982.1,3,6,"",96
"2020-10-02 06:35:00",11.0,10.4,4.0,0.0,0,982.1,4,8,"",96
"2020-10-02 06:36:00",11.0,10.4,4.0,0.0,0,982.1,3,8,"",96
"2020-10-02 06:37:00",11.0,10.4,4.0,0.0,0,982.1,4,8,"",96
"2020-10-02 06:38:00",11.0,10.4,4.0,0.0,0,982.1,4,8,"",96
"2020-10-02 06:39:00",11.0,10.4,4.0,0.0,0,982.1,3,6,"",96
"2020-10-02 06:40:00",11.0,10.4,4.0,0.0,0,982.2,3,8,"",96
"2020-10-02 06:41:00",11.0,10.4,4.0,0.0,0,982.2,2,4,"",96
"2020-10-02 06:42:00",11.0,10.4,4.0,0.0,0,982.2,3,7,"",96
"2020-10-02 06:43:00",11.0,10.4,4.0,0.0,0,982.2,5,11,"",96
"2020-10-02 06:44:00",11.0,10.4,4.0,0.0,0,982.2,4,6,"",96
"2020-10-02 06:45:00",11.0,10.4,4.0,0.0,0,982.2,4,8,"",96
"2020-10-02 06:46:00",11.0,10.4,4.2,0.0,0,982.1,4,6,"",96
"2020-10-02 06:47:00",11.0,10.4,4.2,0.0,0,982.1,3,7,"",96
"2020-10-02 06:48:00",11.0,10.4,4.2,0.0,0,982.1,3,8,"",96
"2020-10-02 06:49:00",11.0,10.4,4.2,0.0,0,982.0,5,12,"",96
"2020-10-02 06:50:00",11.0,10.4,4.2,0.0,0,982.1,4,6,"",96
"2020-10-02 06:51:00",11.0,10.4,4.2,0.0,0,982.1,4,7,"",96
"2020-10-02 06:52:00",11.0,10.4,4.2,0.0,0,982.1,3,7,"",96
"2020-10-02 06:53:00",11.0,10.4,4.2,0.0,0,982.0,3,8,"",96
"2020-10-02 06:54:00",11.0,10.4,4.2,0.0,0,982.1,5,10,"",96